TimeCET,TemperatureF,Dew PointF,Humidity,Sea Level PressureIn,VisibilityMPH,Wind Direction,Wind SpeedMPH,Gust SpeedMPH,PrecipitationIn,Events,Conditions,WindDirDegrees,DateUTC
12:04 AM,30.2,30.2,100,29.77,5.0,Calm,Calm,-,N/A,,Overcast,0,2012-11-29 23:04:00
12:16 AM,30.2,30.2,100,29.77,4.3,SW,2.3,-,N/A,,Scattered Clouds,230,2012-11-29 23:16:00
12:20 AM,30.2,30.2,100,29.77,-9999.0,WSW,2.3,-,N/A,,Scattered Clouds,240,2012-11-29 23:20:00
12:25 AM,30.2,30.2,100,29.77,1.8,WSW,2.3,-,N/A,,Mostly Cloudy,250,2012-11-29 23:25:00
12:29 AM,30.2,30.2,100,29.77,3.1,WSW,2.3,-,N/A,,Scattered Clouds,250,2012-11-29 23:29:00
12:30 AM,30.2,30.2,100,29.77,5.0,WSW,2.3,-,N/A,,Scattered Clouds,250,2012-11-29 23:30:00
12:46 AM,32.0,32.0,100,29.77,6.2,West,1.2,-,N/A,,Overcast,270,2012-11-29 23:46:00
12:55 AM,32.0,32.0,100,29.77,6.2,WSW,1.2,-,N/A,,Overcast,240,2012-11-29 23:55:00
1:25 AM,32.0,32.0,100,29.77,6.2,West,1.2,-,N/A,,Overcast,260,2012-11-30 00:25:00
1:32 AM,32.0,32.0,100,29.77,4.3,WSW,1.2,-,N/A,,Overcast,240,2012-11-30 00:32:00
1:33 AM,33.8,33.8,100,29.77,6.2,SW,1.2,-,N/A,,Overcast,230,2012-11-30 00:33:00
1:40 AM,33.8,33.8,100,29.77,4.3,SW,1.2,-,N/A,,Overcast,230,2012-11-30 00:40:00
1:46 AM,32.0,32.0,100,29.77,5.0,WSW,1.2,-,N/A,,Overcast,240,2012-11-30 00:46:00
1:51 AM,32.0,32.0,100,29.77,-9999.0,Calm,Calm,-,N/A,,Overcast,0,2012-11-30 00:51:00
1:55 AM,32.0,32.0,100,29.77,3.1,Calm,Calm,-,N/A,,Overcast,0,2012-11-30 00:55:00
2:00 AM,32.0,32.0,100,29.77,-9999.0,Calm,Calm,-,N/A,,Overcast,0,2012-11-30 01:00:00
2:04 AM,32.0,32.0,100,29.77,3.1,Calm,Calm,-,N/A,,Overcast,0,2012-11-30 01:04:00
2:10 AM,32.0,32.0,100,29.77,5.0,West,1.2,-,N/A,,Overcast,270,2012-11-30 01:10:00
2:11 AM,32.0,32.0,100,29.77,4.3,WSW,2.3,-,N/A,,Overcast,250,2012-11-30 01:11:00
2:18 AM,32.0,32.0,100,29.77,5.0,WSW,2.3,-,N/A,,Overcast,240,2012-11-30 01:18:00
2:25 AM,32.0,32.0,100,29.77,3.7,WSW,1.2,-,N/A,,Overcast,240,2012-11-30 01:25:00
2:29 AM,33.8,33.8,100,29.77,5.0,SW,2.3,-,N/A,,Overcast,230,2012-11-30 01:29:00
2:34 AM,33.8,33.8,100,29.77,4.3,SW,2.3,-,N/A,,Overcast,230,2012-11-30 01:34:00
2:38 AM,32.0,32.0,100,29.77,-9999.0,WSW,2.3,-,N/A,,Overcast,250,2012-11-30 01:38:00
2:44 AM,30.2,30.2,100,29.77,2.2,West,2.3,-,N/A,,Overcast,260,2012-11-30 01:44:00
2:49 AM,32.0,32.0,100,29.77,2.5,WSW,2.3,-,N/A,,Mostly Cloudy,250,2012-11-30 01:49:00
2:55 AM,32.0,32.0,100,29.77,5.0,WSW,2.3,-,N/A,,Mostly Cloudy,240,2012-11-30 01:55:00
3:05 AM,33.8,33.8,100,29.77,3.7,SW,2.3,-,N/A,,Mostly Cloudy,230,2012-11-30 02:05:00
3:10 AM,30.2,30.2,100,29.77,-9999.0,SW,2.3,-,N/A,,Scattered Clouds,220,2012-11-30 02:10:00
3:14 AM,30.2,30.2,100,29.77,3.7,SW,2.3,-,N/A,,Partly Cloudy,220,2012-11-30 02:14:00
3:18 AM,30.2,30.2,100,29.77,0.9,SSW,1.2,-,N/A,,Partly Cloudy,210,2012-11-30 02:18:00
3:25 AM,30.2,30.2,100,29.77,-9999.0,WSW,1.2,-,N/A,Fog,Light Freezing Fog,240,2012-11-30 02:25:00
3:39 AM,30.2,30.2,100,29.77,0.6,Calm,Calm,-,N/A,Fog,Light Freezing Fog,0,2012-11-30 02:39:00
3:47 AM,30.2,30.2,100,29.77,-9999.0,Calm,Calm,-,N/A,Fog,Light Freezing Fog,0,2012-11-30 02:47:00
3:55 AM,30.2,30.2,100,29.77,-9999.0,Calm,Calm,-,N/A,Fog,Light Freezing Fog,0,2012-11-30 02:55:00
4:11 AM,30.2,30.2,100,29.77,0.6,WSW,1.2,-,N/A,Fog,Light Freezing Fog,240,2012-11-30 03:11:00
4:18 AM,30.2,30.2,100,29.77,1.2,SW,1.2,-,N/A,,Partly Cloudy,230,2012-11-30 03:18:00
4:25 AM,32.0,30.2,93,29.77,-9999.0,SW,2.3,-,N/A,,Scattered Clouds,230,2012-11-30 03:25:00
4:30 AM,30.2,30.2,100,29.77,0.6,SW,1.2,-,N/A,Fog,Light Freezing Fog,230,2012-11-30 03:30:00
4:34 AM,30.2,30.2,100,29.77,1.6,SW,1.2,-,N/A,,Overcast,230,2012-11-30 03:34:00
4:39 AM,30.2,30.2,100,29.77,-9999.0,SW,1.2,-,N/A,,Mostly Cloudy,220,2012-11-30 03:39:00
4:40 AM,30.2,30.2,100,29.77,3.7,SSW,1.2,-,N/A,,Mostly Cloudy,200,2012-11-30 03:40:00
4:47 AM,30.2,30.2,100,29.77,-9999.0,South,1.2,-,N/A,,Mostly Cloudy,180,2012-11-30 03:47:00
4:55 AM,30.2,30.2,100,29.77,0.8,Calm,Calm,-,N/A,,Mostly Cloudy,0,2012-11-30 03:55:00
4:59 AM,28.4,28.4,100,29.77,1.2,East,1.2,-,N/A,,Mostly Cloudy,80,2012-11-30 03:59:00
5:03 AM,30.2,30.2,100,29.77,-9999.0,East,1.2,-,N/A,,Overcast,100,2012-11-30 04:03:00
5:12 AM,30.2,30.2,100,29.77,3.1,SW,1.2,-,N/A,,Mostly Cloudy,230,2012-11-30 04:12:00
5:16 AM,30.2,30.2,100,29.77,1.7,WSW,2.3,-,N/A,,Mostly Cloudy,240,2012-11-30 04:16:00
5:25 AM,30.2,30.2,100,29.77,1.5,SW,2.3,-,N/A,,Mostly Cloudy,230,2012-11-30 04:25:00
5:32 AM,30.2,30.2,100,29.77,-9999.0,WSW,1.2,-,N/A,Fog,Light Freezing Fog,240,2012-11-30 04:32:00
5:33 AM,28.4,28.4,100,29.77,0.9,West,1.2,-,N/A,,Partly Cloudy,260,2012-11-30 04:33:00
5:40 AM,28.4,28.4,100,29.77,1.0,Calm,Calm,-,N/A,,Partly Cloudy,0,2012-11-30 04:40:00
5:46 AM,28.4,28.4,100,29.77,-9999.0,Calm,Calm,-,N/A,,Scattered Clouds,0,2012-11-30 04:46:00
5:48 AM,30.2,30.2,100,29.77,3.7,SSW,1.2,-,N/A,,Partly Cloudy,210,2012-11-30 04:48:00
5:55 AM,30.2,30.2,100,29.77,5.0,SW,2.3,-,N/A,,Mist,230,2012-11-30 04:55:00
5:59 AM,28.4,28.4,100,29.77,-9999.0,WSW,1.2,-,N/A,,Partly Cloudy,240,2012-11-30 04:59:00
6:02 AM,26.6,26.6,100,29.77,1.1,Calm,Calm,-,N/A,,Partly Cloudy,0,2012-11-30 05:02:00
6:07 AM,26.6,26.6,100,29.77,0.7,Calm,Calm,-,N/A,,Partly Cloudy,0,2012-11-30 05:07:00
6:13 AM,28.4,28.4,100,29.77,-9999.0,Calm,Calm,-,N/A,Fog,Light Freezing Fog,0,2012-11-30 05:13:00
6:16 AM,28.4,28.4,100,29.77,0.5,Calm,Calm,-,N/A,Fog,Light Freezing Fog,0,2012-11-30 05:16:00
6:25 AM,28.4,28.4,100,29.77,0.6,Calm,Calm,-,N/A,Fog,Light Freezing Fog,0,2012-11-30 05:25:00
6:33 AM,28.4,28.4,100,29.77,-9999.0,SW,1.2,-,N/A,Fog,Light Freezing Fog,220,2012-11-30 05:33:00
6:37 AM,28.4,28.4,100,29.77,1.1,SW,1.2,-,N/A,,Mist,230,2012-11-30 05:37:00
6:38 AM,28.4,28.4,100,29.77,0.8,SW,1.2,-,N/A,,Mist,230,2012-11-30 05:38:00
6:45 AM,28.4,28.4,100,29.77,-9999.0,SW,1.2,-,N/A,,Mist,220,2012-11-30 05:45:00
6:49 AM,28.4,28.4,100,29.77,-9999.0,SW,1.2,-,N/A,,Mist,220,2012-11-30 05:49:00
6:55 AM,26.6,26.6,100,29.77,1.6,Calm,Calm,-,N/A,,Mist,0,2012-11-30 05:55:00
6:58 AM,26.6,26.6,100,29.77,0.8,Calm,Calm,-,N/A,,Mist,0,2012-11-30 05:58:00
7:03 AM,26.6,26.6,100,29.77,1.3,East,1.2,-,N/A,,Mist,80,2012-11-30 06:03:00
7:08 AM,28.4,28.4,100,29.77,0.4,ESE,1.2,-,N/A,Fog,Light Freezing Fog,120,2012-11-30 06:08:00
7:12 AM,26.6,26.6,100,29.77,0.7,SSE,1.2,-,N/A,,Partly Cloudy,150,2012-11-30 06:12:00
7:16 AM,26.6,26.6,100,29.77,-9999.0,South,1.2,-,N/A,,Partly Cloudy,170,2012-11-30 06:16:00
7:17 AM,26.6,26.6,100,29.77,-9999.0,SSE,1.2,-,N/A,,Partly Cloudy,160,2012-11-30 06:17:00
7:25 AM,26.6,26.6,100,29.77,0.6,Calm,Calm,-,N/A,Fog,Light Freezing Fog,0,2012-11-30 06:25:00
7:31 AM,26.6,26.6,100,29.77,-9999.0,Calm,Calm,-,N/A,Fog,Light Freezing Fog,0,2012-11-30 06:31:00
7:49 AM,26.6,26.6,100,29.77,0.5,Calm,Calm,-,N/A,Fog,Light Freezing Fog,0,2012-11-30 06:49:00
7:55 AM,26.6,26.6,100,29.77,0.4,SSW,1.2,-,N/A,Fog,Light Freezing Fog,210,2012-11-30 06:55:00
8:07 AM,28.4,28.4,100,29.77,0.6,SSW,1.2,-,N/A,Fog,Light Freezing Fog,210,2012-11-30 07:07:00
8:11 AM,28.4,28.4,100,29.77,-9999.0,SW,1.2,-,N/A,,Mist,220,2012-11-30 07:11:00
8:14 AM,26.6,26.6,100,29.77,-9999.0,SW,1.2,-,N/A,Fog,Light Freezing Fog,230,2012-11-30 07:14:00
8:25 AM,28.4,28.4,100,29.80,-9999.0,SW,1.2,-,N/A,Fog,Light Freezing Fog,230,2012-11-30 07:25:00
8:55 AM,26.6,26.6,100,29.80,0.3,Calm,Calm,-,N/A,Fog,Light Freezing Fog,0,2012-11-30 07:55:00
9:25 AM,28.4,28.4,100,29.80,0.9,SW,1.2,-,N/A,,Mist,230,2012-11-30 08:25:00
9:55 AM,30.2,30.2,100,29.80,5.0,SW,1.2,-,N/A,,Partly Cloudy,230,2012-11-30 08:55:00
10:16 AM,33.8,33.8,100,29.80,3.1,Calm,Calm,-,N/A,,Mist,0,2012-11-30 09:16:00
10:25 AM,35.6,35.6,100,29.80,3.1,Calm,Calm,-,N/A,,Mist,0,2012-11-30 09:25:00
10:34 AM,37.4,37.4,100,29.83,6.2,SW,1.2,-,N/A,,Unknown,220,2012-11-30 09:34:00
10:55 AM,39.2,39.2,100,29.83,5.6,SSW,1.2,-,N/A,,Mist,200,2012-11-30 09:55:00
11:25 AM,42.8,41.0,93,29.83,6.2,SW,3.5,-,N/A,,Unknown,230,2012-11-30 10:25:00
11:55 AM,42.8,41.0,93,29.83,6.2,SW,4.6,-,N/A,,Unknown,230,2012-11-30 10:55:00
12:25 PM,42.8,37.4,81,29.83,-9999.0,SW,5.8,-,N/A,,Unknown,230,2012-11-30 11:25:00
12:55 PM,44.6,37.4,76,29.83,6.2,WSW,6.9,-,N/A,,Mostly Cloudy,240,2012-11-30 11:55:00
1:25 PM,44.6,37.4,76,29.83,-9999.0,WSW,6.9,-,N/A,,Overcast,240,2012-11-30 12:25:00
1:55 PM,42.8,37.4,81,29.83,-9999.0,WSW,8.1,-,N/A,,Partly Cloudy,250,2012-11-30 12:55:00
2:25 PM,42.8,37.4,81,29.83,-9999.0,WSW,6.9,-,N/A,,Mostly Cloudy,240,2012-11-30 13:25:00
2:35 PM,42.8,37.4,81,29.83,6.2,WSW,8.1,-,N/A,,Overcast,240,2012-11-30 13:35:00
2:40 PM,42.8,39.2,87,29.83,6.2,WSW,9.2,-,N/A,,Overcast,240,2012-11-30 13:40:00
2:55 PM,42.8,39.2,87,29.83,6.2,WSW,6.9,-,N/A,,Overcast,250,2012-11-30 13:55:00
3:25 PM,42.8,39.2,87,29.83,6.2,SW,5.8,-,N/A,,Overcast,230,2012-11-30 14:25:00
3:55 PM,42.8,39.2,87,29.83,6.2,SW,6.9,-,N/A,,Mostly Cloudy,220,2012-11-30 14:55:00
3:56 PM,42.8,39.2,87,29.83,6.2,SW,6.9,-,N/A,,Mostly Cloudy,220,2012-11-30 14:56:00
4:09 PM,42.8,39.2,87,29.83,6.2,SW,5.8,-,N/A,,Light Drizzle,220,2012-11-30 15:09:00
4:25 PM,41.0,39.2,93,29.83,6.2,SW,6.9,-,N/A,,Overcast,220,2012-11-30 15:25:00
4:33 PM,41.0,37.4,87,29.83,6.2,SW,6.9,-,N/A,,Overcast,220,2012-11-30 15:33:00
4:44 PM,41.0,37.4,87,29.83,5.6,SW,8.1,-,N/A,,Mostly Cloudy,220,2012-11-30 15:44:00
4:48 PM,39.2,37.4,93,29.83,5.0,SW,8.1,-,N/A,,Overcast,230,2012-11-30 15:48:00
4:55 PM,39.2,37.4,93,29.83,4.3,SW,8.1,-,N/A,,Mostly Cloudy,230,2012-11-30 15:55:00
4:59 PM,39.2,37.4,93,29.83,4.3,SW,8.1,-,N/A,,Mostly Cloudy,230,2012-11-30 15:59:00
5:05 PM,39.2,37.4,93,29.83,3.7,SW,8.1,-,N/A,,Mostly Cloudy,220,2012-11-30 16:05:00
5:14 PM,39.2,37.4,93,29.83,3.1,SW,6.9,-,N/A,,Overcast,220,2012-11-30 16:14:00
5:25 PM,39.2,37.4,93,29.83,-9999.0,SW,8.1,-,N/A,,Mostly Cloudy,220,2012-11-30 16:25:00
5:29 PM,37.4,37.4,100,29.83,-9999.0,SW,6.9,-,N/A,,Mostly Cloudy,220,2012-11-30 16:29:00
5:33 PM,37.4,37.4,100,29.83,-9999.0,SW,6.9,-,N/A,,Mostly Cloudy,220,2012-11-30 16:33:00
5:43 PM,37.4,37.4,100,29.83,-9999.0,SSW,5.8,-,N/A,,Mostly Cloudy,210,2012-11-30 16:43:00
5:47 PM,37.4,37.4,100,29.83,3.1,SSW,4.6,-,N/A,,Mostly Cloudy,210,2012-11-30 16:47:00
5:51 PM,37.4,37.4,100,29.83,-9999.0,SSW,4.6,-,N/A,,Scattered Clouds,210,2012-11-30 16:51:00
5:55 PM,37.4,35.6,93,29.83,-9999.0,SW,3.5,-,N/A,,Scattered Clouds,230,2012-11-30 16:55:00
5:59 PM,37.4,35.6,93,29.83,3.1,SW,3.5,-,N/A,,Mostly Cloudy,230,2012-11-30 16:59:00
6:03 PM,37.4,35.6,93,29.86,-9999.0,SW,2.3,-,N/A,,Overcast,230,2012-11-30 17:03:00
6:13 PM,37.4,37.4,100,29.86,2.2,WSW,3.5,-,N/A,,Overcast,240,2012-11-30 17:13:00
6:25 PM,37.4,37.4,100,29.86,2.2,WSW,5.8,-,N/A,,Overcast,250,2012-11-30 17:25:00
6:33 PM,37.4,37.4,100,29.86,-9999.0,SW,6.9,-,N/A,Rain,Light Rain,230,2012-11-30 17:33:00
6:37 PM,37.4,37.4,100,29.86,1.7,SW,8.1,-,N/A,Rain,Light Rain,230,2012-11-30 17:37:00
6:55 PM,37.4,37.4,100,29.86,-9999.0,SSW,6.9,-,N/A,Rain,Light Rain,200,2012-11-30 17:55:00
7:07 PM,37.4,37.4,100,29.86,1.7,SSW,6.9,-,N/A,,Mostly Cloudy,200,2012-11-30 18:07:00
7:11 PM,37.4,37.4,100,29.86,1.7,SSW,6.9,-,N/A,,Drizzle,200,2012-11-30 18:11:00
7:25 PM,37.4,37.4,100,29.86,1.7,South,6.9,-,N/A,,Heavy Drizzle,190,2012-11-30 18:25:00
7:30 PM,37.4,37.4,100,29.86,1.6,SSW,8.1,-,N/A,,Drizzle,200,2012-11-30 18:30:00
7:34 PM,37.4,37.4,100,29.86,1.6,SSW,8.1,-,N/A,,Light Drizzle,210,2012-11-30 18:34:00
7:39 PM,37.4,37.4,100,29.86,1.6,SSW,6.9,-,N/A,,Mostly Cloudy,210,2012-11-30 18:39:00
7:55 PM,37.4,37.4,100,29.86,1.7,SSW,4.6,-,N/A,,Mostly Cloudy,200,2012-11-30 18:55:00
8:10 PM,37.4,37.4,100,29.86,1.7,South,5.8,-,N/A,,Mostly Cloudy,190,2012-11-30 19:10:00
8:14 PM,37.4,37.4,100,29.86,1.7,SSW,5.8,-,N/A,,Mostly Cloudy,200,2012-11-30 19:14:00
8:25 PM,39.2,37.4,93,29.86,1.7,SSW,5.8,-,N/A,,Mostly Cloudy,200,2012-11-30 19:25:00
8:55 PM,39.2,37.4,93,29.86,1.7,SW,3.5,-,N/A,,Mostly Cloudy,220,2012-11-30 19:55:00
9:25 PM,37.4,37.4,100,29.86,-9999.0,WSW,4.6,-,N/A,,Mostly Cloudy,240,2012-11-30 20:25:00
9:55 PM,37.4,37.4,100,29.86,1.6,SW,8.1,-,N/A,,Overcast,220,2012-11-30 20:55:00
9:59 PM,37.4,37.4,100,29.86,1.6,SW,8.1,-,N/A,,Overcast,220,2012-11-30 20:59:00
10:25 PM,37.4,37.4,100,29.89,1.6,SW,8.1,-,N/A,,Overcast,220,2012-11-30 21:25:00
10:43 PM,37.4,37.4,100,29.89,1.6,SW,5.8,-,N/A,,Partly Cloudy,230,2012-11-30 21:43:00
10:55 PM,35.6,35.6,100,29.89,1.7,SW,5.8,-,N/A,,Partly Cloudy,230,2012-11-30 21:55:00
11:25 PM,37.4,35.6,93,29.89,1.9,SW,5.8,-,N/A,,Partly Cloudy,220,2012-11-30 22:25:00
11:29 PM,37.4,35.6,93,29.89,-9999.0,SW,4.6,-,N/A,,Scattered Clouds,220,2012-11-30 22:29:00
11:33 PM,37.4,37.4,100,29.89,-9999.0,SW,4.6,-,N/A,,Mostly Cloudy,220,2012-11-30 22:33:00
11:46 PM,37.4,35.6,93,29.89,1.8,SW,5.8,-,N/A,,Mostly Cloudy,230,2012-11-30 22:46:00
11:55 PM,37.4,35.6,93,29.89,-9999.0,SW,4.6,-,N/A,,Mostly Cloudy,220,2012-11-30 22:55:00